Regional Weather Roundup
Issued by NWS State College, PA

Home | Current Version | Previous Version | Graphics & Text | Print | Product List | Glossary On
Versions: 1 2 3 4 5 6 7 8 9 10 11 12 13 14 15 16 17 18 19 20 21 22 23 24 25 26 27 28 29 30 31 32 33 34 35 36 37 38 39 40 41 42 43 44 45 46 47 48 49 50
000
ASUS41 KCTP 290403
RWRCTP

REGIONAL WEATHER ROUNDUP
NATIONAL WEATHER SERVICE STATE COLLEGE PA
1200 AM EDT SAT APR 29 2017

Note: "fair" indicates few or no clouds below 12,000 feet with no
significant weather and/or obstructions to visibility.

* = STATION THAT DOES NOT REPORT PRECIPITATION /E.G. RAIN...SNOW...ETC/
    THUNDER OR FOG.

PAZ002>004-007>009-013>016-020>023-029>032-290500-
WESTERN PENNSYLVANIA

CITY           SKY/WX    TMP DP  RH WIND       PRES   REMARKS
ERIE           CLOUDY    60  48  64 S16G23    29.98F
MEADVILLE      LGT RAIN  54  50  86 VRB5      30.02F
FRANKLIN*      CLOUDY    54  46  76 SE9       30.07F
NEW CASTLE     RAIN      55  53  93 SE9       30.04F
BEAVER COUNTY  NOT AVBL
BUTLER*        CLOUDY    54  50  87 N8        30.08F
PITTSBURGH INT TSTM      58  52  80 NE13      30.05F
PITTSBURGH     LGT RAIN  56  49  77 N8        30.04S
INDIANA*       CLOUDY    57  52  82 E6G14     30.08F
LATROBE        CLOUDY    61  48  63 N8        30.05R
WASHINGTON CO* CLOUDY    55  50  82 NE8       30.06R
$$

PAZ004>006-010>012-017>019-024>028-033>037-041-042-045-046-049>053-290500-
CENTRAL PENNSYLVANIA

CITY           SKY/WX    TMP DP  RH WIND       PRES   REMARKS
BRADFORD       LGT RAIN  57  47  69 S6        30.09R
DUBOIS         LGT RAIN  53  50  89 S3        30.10F FOG
CLEARFIELD     RAIN      54  51  90 N9        30.11R
JOHNSTOWN      CLOUDY    60  41  49 NE14G23   30.04F
ALTOONA        CLOUDY    65  49  56 NE9       30.06R
STATE COLLEGE  CLOUDY    56  50  79 E6        30.09S
WILLIAMSPORT   CLOUDY   N/A N/A N/A W6        30.05
SELINSGROVE    CLOUDY    63  55  75 CALM      30.03S
FT INDIANTOWN  CLOUDY    62  54  76 CALM      30.03F
CAPITAL CITY   LGT RAIN  72  59  63 SE8       30.02S
HARRISBURG     CLOUDY    67  60  78 SE6       30.02S
YORK           CLOUDY    71  61  70 VRB7      30.03R
$$

PAZ038>040-043-044-047-048-054-055-060>062-067>071-290500-
EASTERN PENNSYLVANIA

CITY           SKY/WX    TMP DP  RH WIND       PRES   REMARKS
SCRANTON       CLOUDY    65  41  41 E6        30.03F
MOUNT POCONO   CLOUDY    56  46  69 CALM      30.09R
ALLENTOWN      CLOUDY    61  51  70 N3        30.06R
QUAKERTOWN*    CLOUDY    61  54  77 CALM      30.07S
READING        PTCLDY    65  54  67 N3        30.04S
LANCASTER      CLOUDY    64  59  83 CALM      30.05R
COATESVILLE    PTCLDY    64  59  82 CALM      30.09R
POTTSTOWN      PTCLDY    64  55  72 CALM      30.07S
BLUE BELL      CLOUDY    61  59  94 CALM      30.07S
DOYLESTOWN     CLOUDY    65  57  75 CALM      30.05S
WILLOW GROVE   NOT AVBL
NORTH PHILA    PTCLDY    72  57  59 SE5       30.05F
PHILADELPHIA   MOCLDY    69  58  67 S3        30.06R
$$



USA.gov is the U.S. government's official web portal to all federal, state and local government web resources and services.